COSMOS 1716

Satellite information

Favourite Embed

Satellite Type and Status

PAYLOADIN ORBIT

Key statistics

Satellite COSMOS 1716 at a glance.

Uptime

14542

Days in orbit

Revolutions

≈ 12.5

Per day

Orbit

LEO

Low Earth Orbit

Inclination

74.0

Latest

Satellite identification and parameters

Extended collection of information and parameters for COSMOS 1716.

Object identification

Identified? True

Debris? False

Object name: COSMOS 1716

International designator: 1986-002A

Object number (NORAD): 16449

Object ID (CCSDS): 16449

Country: COMMONWEALTH OF INDEPENDENT STATES (CIS)

Current information (Y/N): Y

RCS size: MEDIUM

Orbital parameters

Period: 115.485 minutes

Inclination: 73.9904 deg

SMA: 7855.564 km

Apoapsis: 1490.657 km

Periapsis: 1464.2 km

RAAN: 341.4045 deg

Eccentricy: 0.00168395

Argument of periapsis: 107.4552 deg

Mean anomaly: 47.1576 deg

Mean motion: 12.46914673 rev/day

Mean motion (dot): 0.0000001 rev/day2

B* drag term: 0.00017954073 1/REarth

Two-line elements (TLE)

Creation date: Nov. 1, 2025, 7:40 p.m.

Reference frame: TEME

Reference center: EARTH

Epoch: Nov. 1, 2025, 1:30 p.m. UTC

TLE line 0: 0 COSMOS 1716

TLE line 1: 1 16449U 86002A 25305.56262903 .00000010 00000-0 17954-3 0 9998

TLE line 2: 2 16449 73.9904 341.4045 0016839 107.4552 47.1576 12.46914673812251

Live tracking on map

Real-time ground track for satellite COSMOS 1716.

In-orbit conjunctions

There are no conjunctions computed for COSMOS 1716, at the moment. Check back to stay up to date, as we update our databases every day.

Go to all conjunctions

Associated space launch

Military communications satellites

COSMOS 1716 was lifted into orbit during the mission ‘Kosmos-3M | Strela-1M 297-304’, on board a Kosmos-3M space rocket.

The launch took place on Jan. 9, 1986, 2:48 a.m. from 132/2.

For more information about the launch, click the button.

Launch to space Kosmos-3M | Strela-1M 297-304
Kosmos-3M | Strela-1M 297-304

Agency: N/A

Status: Launch Successful

Launch date: Jan. 9, 1986, 2:48 a.m. UTC

Rocket: Kosmos-3M

Launch pad: 132/2

Location: Plesetsk Cosmodrome, Russian Federation

...

Latest news about this satellite

There are no fresh news available about this satellite. Check back as we update our databases every day.


Newsletter sign-up

Weekly statistics, charts and insights to help you stay on top of the space industry.